Regional Weather Roundup
Issued by NWS

Home | Current Version | Previous Version | Graphics & Text | Print | Product List | Glossary On
Versions: 1 2 3 4 5 6 7 8 9 10 11 12 13 14 15 16 17 18 19 20 21 22 23 24 25 26 27 28 29 30 31 32 33 34 35 36 37 38 39 40 41 42 43 44 45 46 47 48 49 50
000
ASUS43 KLMK 210502
RWRKY
KENTUCKY REGIONAL WEATHER ROUNDUP
NATIONAL WEATHER SERVICE LOUISVILLE KY
1200 AM EST SUN DEC 21 2014

NOTE "FAIR" INDICATES FEW OR NO CLOUDS BELOW 12,000 FEET
WITH NO SIGNIFICANT WEATHER AND/OR OBSTRUCTIONS TO VISIBILITY.

KYZ001>023-026-027-061>063-070>075-210600-
WESTERN AND SOUTH CENTRAL KENTUCKY

CITY           SKY/WX    TMP DP  RH WIND       PRES   REMARKS
PADUCAH        CLEAR     28  24  85 CALM      30.28S
HENDERSON      CLEAR     25  19  80 CALM      30.29F
OWENSBORO      CLEAR     29  26  88 CALM      30.30F
HOPKINSVILLE   CLEAR     30  25  82 NE3       30.28R
BOWLING GREEN  CLEAR     27  23  85 CALM      30.29S
GLASGOW        NOT AVBL
$$

KYZ024-025-028>034-038-045-046-053-210600-
NORTH CENTRAL KENTUCKY

CITY           SKY/WX    TMP DP  RH WIND       PRES   REMARKS
LOUISVILLE/SDF PTCLDY    30  25  81 CALM      30.30S
LOUISVILLE/LOU CLEAR     27  24  89 CALM      30.31S
FORT KNOX      CLEAR     26  23  89 N6        30.27F WCI  20
$$

KYZ035>037-039>044-047>052-055>060-089>105-210600-
NORTHEAST KENTUCKY

CITY           SKY/WX    TMP DP  RH WIND       PRES   REMARKS
LEXINGTON      CLEAR     26  23  88 NE3       30.28S FOG
COVINGTON      CLOUDY    32  24  72 N3        30.29S
FRANKFORT      CLEAR     24  21  88 CALM      30.28S
$$

KYZ054-064>069-076>088-106>120-210600-
SOUTHEAST KENTUCKY

CITY           SKY/WX    TMP DP  RH WIND       PRES   REMARKS
JACKSON        CLEAR     29  23  78 CALM      30.25S
LONDON         CLEAR     28  32 100 CALM      30.26R
SOMERSET       NOT AVBL
MIDDLESBORO    CLEAR     29  27  92 CALM      30.26S
MONTICELLO     CLEAR     20  18  92 CALM      30.30S FOG
$$



USA.gov is the U.S. government's official web portal to all federal, state and local government web resources and services.